Wetbulb
71.72 75.33 76.42 76.47 76.34 75.84 75.15 74.93 75.42 75.99 76.21 76.41 76.21 75.91 75.26 74.69 74.29 73.61 72.47 71.63 71.82 70.32 69.34 68.65 68.08 67.69 67.40 67.10 66.78 66.30 66.11 66.19 66.63 67.82 69.26 70.91 71.89 72.88 72.43 73.43 73.82 74.41 74.68
73.13 74.45 75.99 76.04 75.97 75.84 75.41 74.73 74.56 74.96 75.19 75.39 75.61 75.04 74.47 73.64 72.81 72.43 71.77 71.02 70.79 69.29 68.47 67.70 67.00 66.89 67.10 67.15 66.95 66.72 66.48 66.07 65.64 65.33 65.78 68.31 70.17 70.26 72.25 72.35 73.08 73.90 73.48
73.28 74.13 75.70 75.57 75.64 75.77 75.42 74.84 74.39 74.24 74.29 74.42 74.54 74.32 73.57 73.19 72.45 71.44 70.78 69.79 69.18 68.30 67.68 67.37 67.05 66.90 67.09 67.36 67.40 67.32 67.27 67.03 66.76 66.46 66.07 66.14 70.61 69.56 69.83 71.81 72.89 73.38 73.32
74.42 74.58 73.09 75.29 75.14 75.44 75.24 74.79 74.47 74.29 73.99 73.89 73.82 73.67 73.22 72.95 72.31 70.64 69.39 68.56 68.26 68.24 67.96 67.81 67.90 68.10 68.24 68.10 67.89 67.70 67.64 67.59 67.32 67.62 67.60 65.42 65.04 67.62 68.67 69.58 71.17 73.32 73.44
74.78 75.01 73.21 75.11 75.01 75.11 74.91 74.51 74.34 74.19 73.99 73.79 73.84 73.37 72.90 72.30 71.27 70.51 69.84 69.57 68.39 68.16 68.38 68.75 68.59 68.48 68.56 68.90 69.06 68.91 68.44 68.05 67.91 68.34 68.46 67.69 65.94 67.51 69.05 70.34 71.63 73.07 73.70
74.39 74.74 74.60 74.76 74.99 74.71 74.69 74.27 73.92 73.72 73.54 73.37 73.20 72.70 72.15 71.54 71.05 70.61 70.39 70.17 69.07 68.49 68.99 68.88 68.67 68.90 69.03 69.46 70.07 70.40 70.68 70.10 69.85 70.69 70.23 69.02 66.42 68.80 69.21 70.71 71.83 72.33 73.84
74.06 74.77 74.82 74.79 74.94 74.81 74.64 74.24 73.67 73.30 72.80 72.47 72.27 71.94 71.77 71.47 71.08 70.71 70.52 70.08 69.73 69.29 69.45 69.52 69.58 69.84 69.61 69.71 70.01 69.95 69.99 70.13 71.56 71.51 71.15 71.03 68.31 68.38 69.45 70.87 72.00 72.96 72.89
73.50 74.59 74.40 75.06 74.76 74.41 74.32 74.07 73.34 72.80 72.45 72.08 71.78 71.70 71.65 71.45 71.14 70.89 70.83 70.34 70.64 70.92 70.38 70.24 70.34 70.62 70.69 70.74 70.89 71.01 70.62 70.64 70.97 71.11 71.28 71.77 69.11 67.82 69.42 71.60 72.47 73.78 72.78
74.49 75.08 75.01 74.76 74.54 74.48 74.21 73.77 73.29 72.60 72.21 71.93 71.54 71.56 71.61 71.54 71.27 71.12 71.04 71.06 71.06 71.35 71.68 71.50 70.93 70.83 70.74 71.24 71.10 70.68 70.36 70.40 70.94 71.25 70.76 71.15 68.95 67.29 68.86 71.41 71.61 72.29 72.25
74.35 74.54 74.33 74.82 73.67 73.08 73.07 74.03 73.41 72.84 72.60 72.00 71.81 71.86 71.69 71.76 71.47 71.07 70.72 70.90 71.32 71.59 71.64 71.54 70.99 71.17 71.47 70.78 70.31 70.02 69.74 69.61 69.10 69.83 70.89 71.60 69.16 68.04 68.55 70.19 70.47 71.10 71.33
72.01 74.17 74.76 73.94 74.27 73.26 71.49 72.56 73.72 73.34 72.91 72.52 72.06 72.03 71.49 70.14 70.48 70.14 69.83 70.94 71.59 71.69 71.47 71.32 71.27 71.41 71.19 70.33 69.72 69.28 69.01 69.40 69.58 69.38 69.59 70.60 69.53 69.00 68.54 68.82 70.04 69.87 70.12
70.32 72.20 73.88 74.91 74.17 73.99 71.27 72.47 73.24 71.64 71.56 71.31 70.72 70.48 70.32 70.26 70.72 69.58 70.32 71.34 71.71 71.71 71.32 71.37 71.46 71.60 70.73 70.83 70.83 69.15 69.54 70.21 69.60 69.18 69.39 70.11 69.01 69.55 69.39 68.89 69.36 70.21 69.90
66.27 67.48 72.02 74.47 74.83 74.15 72.95 71.89 71.92 72.36 72.25 71.79 70.91 72.49 71.89 70.21 71.02 69.94 69.84 70.26 70.68 71.17 71.38 72.01 72.09 71.58 71.43 70.75 69.92 69.84 69.80 68.86 68.88 68.84 69.81 69.04 68.91 69.40 69.55 69.40 69.30 70.03 70.31
65.75 66.88 68.72 73.76 74.71 74.88 73.77 72.73 72.67 71.96 72.58 71.48 71.25 73.45 72.09 71.48 72.09 70.87 69.37 70.32 70.18 67.96 70.45 71.84 71.09 72.18 71.81 71.06 70.52 69.82 69.73 69.44 68.96 69.50 70.81 68.89 68.62 69.01 69.11 69.17 69.43 69.70 70.32
65.81 67.53 68.64 71.67 74.37 74.84 74.84 74.21 73.98 72.83 72.48 72.91 72.04 72.68 72.48 70.58 71.96 71.02 70.92 69.73 70.49 70.01 69.64 70.82 70.94 71.53 71.55 71.24 70.58 69.83 69.52 69.65 70.00 69.64 69.86 69.50 68.67 68.91 69.43 69.75 69.72 69.57 69.88
66.41 67.37 68.83 69.48 73.65 74.84 74.78 75.17 74.56 74.88 73.95 73.13 72.34 71.99 73.22 71.41 72.50 69.95 70.72 69.55 69.62 69.84 69.50 70.32 70.51 70.93 70.01 70.65 70.25 70.45 69.98 69.78 70.17 70.12 69.73 69.61 69.20 68.84 68.60 69.06 69.43 69.84 69.79
66.59 68.31 69.56 70.70 72.08 75.02 75.18 74.69 74.39 73.63 73.45 72.48 72.58 74.41 72.49 73.44 72.97 71.92 69.57 69.32 68.60 70.17 71.22 70.16 70.87 70.51 70.05 70.02 69.86 69.89 70.59 70.22 69.91 70.11 70.15 69.46 68.85 68.57 68.50 68.87 69.15 69.17 69.66
67.75 68.06 69.30 68.26 68.95 73.32 75.45 74.29 73.09 72.67 72.70 72.41 72.39 72.65 72.61 72.78 72.96 72.32 69.28 69.15 69.06 69.97 69.29 68.42 69.66 68.97 69.18 69.18 71.34 70.61 70.16 69.53 69.86 69.98 70.01 69.73 69.08 68.67 68.66 69.38 69.04 69.66 69.81
66.86 68.00 68.63 69.78 69.07 72.28 73.15 72.41 73.70 75.26 72.87 72.14 72.26 72.40 72.65 71.97 71.86 71.27 69.63 69.09 72.18 68.71 68.23 68.42 67.96 68.60 68.19 69.02 68.69 70.65 69.69 68.89 68.84 68.97 69.34 69.25 69.85 69.40 68.57 69.44 69.01 69.60 70.09
66.01 69.24 70.93 70.36 72.49 71.58 70.43 72.21 71.37 71.87 72.11 72.12 71.85 71.99 72.50 72.14 71.51 71.12 70.13 70.36 70.57 68.09 67.74 67.52 68.37 68.96 70.16 70.40 68.53 67.83 68.13 68.16 68.20 68.11 68.50 68.99 69.16 69.58 69.72 69.43 69.20 68.16 69.18
65.70 69.32 70.23 70.50 73.86 70.17 68.15 68.78 70.16 70.09 71.41 71.36 71.48 72.44 72.20 71.73 71.12 71.09 70.15 69.87 69.63 68.47 68.41 69.03 68.07 69.33 70.07 70.03 67.43 66.01 66.25 67.66 67.86 67.54 68.11 68.47 68.37 68.83 69.00 69.69 68.65 69.95 68.28
66.58 68.82 70.55 70.76 71.61 70.60 68.93 71.37 71.48 71.81 71.73 71.91 71.66 72.08 72.26 70.61 71.59 71.11 70.86 70.24 69.74 67.64 68.67 69.11 69.59 67.75 69.11 69.44 65.53 64.30 60.58 62.88 65.76 66.39 66.98 67.27 67.87 69.05 68.46 68.99 69.07 68.86 68.76
64.77 67.79 68.28 70.01 70.96 70.94 71.03 70.94 72.01 72.28 72.21 71.10 71.19 69.92 69.86 71.51 70.93 71.18 71.16 70.91 69.84 68.59 67.09 68.99 71.34 68.80 68.32 66.47 67.55 63.78 59.73 57.75 61.35 64.82 65.17 66.18 67.63 68.69 69.26 69.08 68.34 68.99 68.69
62.73 64.73 66.37 68.28 68.66 68.64 71.08 72.68 73.07 70.29 69.03 70.16 70.89 69.64 71.11 71.08 70.68 70.51 70.15 70.99 70.07 68.24 69.94 70.61 70.77 69.01 68.68 65.57 65.37 65.10 65.62 63.78 58.88 59.37 64.45 65.21 67.29 67.50 68.41 68.65 68.69 67.96 67.17
61.92 63.32 66.16 67.37 70.11 69.81 70.93 73.10 71.33 71.35 71.08 71.28 70.79 70.81 69.49 70.32 70.21 70.33 71.34 70.40 69.53 69.18 71.32 70.10 69.99 69.54 68.26 65.50 64.14 63.40 63.50 62.79 63.73 60.93 59.90 62.44 65.24 67.03 67.71 68.73 68.69 67.75 66.53
61.82 62.72 66.56 69.78 71.09 69.85 70.49 71.63 72.36 72.04 72.12 70.88 71.11 66.68 67.67 68.46 69.45 70.81 70.51 70.91 71.32 71.49 71.18 70.18 69.66 69.03 67.72 66.08 64.92 64.49 62.72 61.33 60.92 61.84 61.47 61.87 62.47 64.36 66.67 67.53 68.94 69.64 67.63
MSLP
1005.47 1006.65 1008.22 1008.80 1009.30 1009.61 1009.80 1010.15 1010.39 1010.74 1010.94 1011.26 1011.57 1011.83 1012.23 1012.52 1012.70 1012.84 1012.93 1013.09 1013.27 1013.41 1013.54 1013.75 1013.93 1014.08 1014.24 1014.41 1014.55 1014.59 1014.68 1014.73 1014.71 1014.66 1014.66 1014.60 1014.44 1014.48 1014.40 1014.31 1014.38 1014.04 1014.54
1004.93 1006.52 1008.06 1008.56 1009.12 1009.61 1009.93 1010.17 1010.44 1010.76 1010.95 1011.32 1011.64 1011.96 1012.22 1012.58 1012.85 1013.06 1013.11 1013.28 1013.44 1013.65 1013.79 1013.97 1014.00 1014.15 1014.23 1014.30 1014.44 1014.55 1014.69 1014.74 1014.74 1014.76 1014.68 1014.72 1014.62 1014.59 1014.49 1014.48 1014.37 1014.33 1014.74
1005.04 1006.29 1007.75 1008.44 1009.11 1009.42 1009.91 1010.17 1010.37 1010.65 1010.96 1011.24 1011.58 1011.92 1012.23 1012.53 1012.78 1013.10 1013.34 1013.58 1013.67 1013.75 1013.95 1014.06 1014.15 1014.24 1014.37 1014.41 1014.39 1014.58 1014.61 1014.68 1014.67 1014.65 1014.62 1013.78 1013.59 1014.69 1014.70 1014.62 1014.62 1014.66 1014.82
1005.17 1006.34 1007.06 1008.17 1008.71 1009.18 1009.67 1010.03 1010.36 1010.62 1011.03 1011.21 1011.51 1011.90 1012.13 1012.41 1012.73 1012.93 1013.29 1013.62 1013.76 1013.93 1014.04 1014.12 1014.35 1014.47 1014.53 1014.53 1014.59 1014.75 1014.73 1014.62 1014.63 1014.53 1013.71 1013.64 1013.78 1014.76 1014.85 1014.82 1014.80 1014.79 1014.97
1005.43 1006.31 1006.76 1007.84 1008.32 1008.74 1009.18 1009.74 1010.26 1010.66 1011.06 1011.26 1011.63 1011.81 1012.09 1012.36 1012.62 1012.77 1013.06 1013.39 1013.61 1013.90 1014.10 1014.28 1014.37 1014.51 1014.60 1014.71 1014.80 1014.91 1014.93 1014.76 1014.68 1014.36 1013.61 1013.70 1013.92 1014.27 1014.83 1014.84 1014.75 1014.78 1014.95
1005.39 1006.08 1006.81 1007.78 1008.38 1008.67 1009.00 1009.68 1010.18 1010.54 1010.98 1011.26 1011.58 1011.77 1012.06 1012.36 1012.61 1012.77 1013.09 1013.27 1013.41 1013.63 1013.82 1014.16 1014.39 1014.51 1014.67 1014.73 1014.89 1014.95 1014.88 1014.89 1014.69 1013.35 1013.69 1013.91 1014.08 1014.68 1014.85 1014.88 1014.78 1014.76 1014.86
1005.00 1005.67 1006.51 1007.90 1008.34 1008.65 1009.11 1009.72 1010.35 1010.72 1011.01 1011.26 1011.56 1011.83 1011.98 1012.24 1012.52 1012.87 1013.10 1013.25 1013.30 1013.45 1013.77 1014.03 1014.26 1014.38 1014.51 1014.63 1014.82 1014.87 1014.89 1014.80 1014.22 1013.04 1013.45 1013.65 1013.64 1014.58 1014.86 1014.76 1014.66 1014.69 1014.87
1004.67 1005.54 1006.01 1007.78 1008.53 1008.91 1009.07 1009.47 1010.13 1010.61 1010.88 1011.13 1011.44 1011.68 1012.08 1012.28 1012.43 1012.79 1013.15 1013.23 1013.28 1013.41 1013.64 1013.86 1014.06 1014.31 1014.45 1014.56 1014.71 1014.73 1014.76 1014.79 1013.93 1013.22 1013.17 1013.41 1014.16 1014.60 1014.70 1014.54 1014.44 1014.50 1014.78
1004.55 1005.39 1006.06 1006.99 1008.31 1009.00 1009.29 1009.42 1009.71 1010.14 1010.64 1011.00 1011.24 1011.58 1012.04 1012.42 1012.46 1012.76 1013.08 1013.17 1013.41 1013.58 1013.70 1013.84 1014.02 1014.25 1014.37 1014.50 1014.64 1014.70 1014.56 1014.57 1014.05 1012.73 1013.03 1013.31 1014.14 1014.54 1014.55 1014.39 1014.32 1014.44 1014.71
1004.42 1005.04 1005.51 1006.27 1007.13 1007.71 1008.36 1009.16 1009.56 1009.91 1010.36 1010.78 1011.07 1011.32 1011.72 1012.24 1012.45 1012.74 1012.94 1013.15 1013.46 1013.64 1013.75 1013.95 1014.10 1014.22 1014.28 1014.36 1014.40 1014.48 1014.60 1014.46 1013.86 1013.02 1012.63 1012.74 1014.03 1014.51 1014.47 1014.42 1014.37 1014.49 1014.66
1003.88 1004.64 1005.21 1005.72 1006.21 1006.73 1007.00 1007.88 1009.26 1009.77 1010.12 1010.46 1010.85 1011.34 1011.62 1011.54 1011.91 1012.18 1012.51 1012.72 1013.20 1013.53 1013.75 1013.93 1014.00 1013.99 1014.05 1014.10 1014.17 1014.27 1014.30 1013.14 1012.60 1012.62 1012.44 1013.19 1013.99 1014.48 1014.46 1014.38 1014.40 1014.51 1014.57
1003.20 1003.91 1004.65 1005.58 1005.89 1006.30 1006.43 1006.96 1008.07 1008.67 1009.36 1009.75 1009.88 1010.26 1010.92 1010.85 1010.92 1011.21 1011.67 1012.47 1012.86 1013.11 1013.19 1013.35 1013.73 1013.94 1013.98 1012.52 1012.69 1013.71 1013.06 1012.36 1012.56 1012.40 1012.40 1013.35 1013.98 1014.30 1014.31 1014.31 1014.35 1014.44 1014.53
1002.66 1003.16 1003.72 1004.90 1005.88 1005.98 1006.17 1006.41 1007.00 1007.60 1008.05 1008.52 1009.02 1009.28 1009.78 1010.05 1010.25 1010.72 1010.77 1011.60 1012.05 1012.88 1013.05 1013.13 1012.65 1012.66 1012.42 1012.07 1011.91 1012.09 1012.06 1012.55 1012.19 1012.13 1012.43 1013.38 1013.85 1014.09 1014.07 1014.11 1014.17 1014.29 1014.37
1002.48 1002.75 1003.48 1004.26 1005.46 1005.92 1005.80 1006.07 1006.16 1006.54 1006.96 1007.40 1007.81 1008.52 1008.80 1009.26 1009.55 1009.79 1009.93 1010.33 1010.98 1010.95 1010.87 1011.85 1011.73 1011.47 1011.75 1012.15 1012.14 1012.15 1012.17 1012.11 1011.82 1011.85 1012.04 1013.19 1013.64 1013.82 1013.84 1013.80 1013.85 1013.95 1014.21
1002.58 1002.58 1002.93 1003.63 1004.65 1005.26 1005.73 1005.28 1005.38 1005.48 1005.89 1006.15 1006.57 1007.29 1007.84 1008.07 1008.57 1009.19 1009.40 1009.55 1010.14 1010.30 1010.89 1011.32 1010.65 1011.48 1011.59 1011.85 1011.96 1012.05 1012.06 1011.92 1012.01 1012.01 1011.67 1012.70 1013.30 1013.55 1013.53 1013.49 1013.48 1013.56 1013.80
1002.23 1002.20 1002.41 1002.91 1003.63 1004.39 1004.67 1004.86 1004.71 1005.12 1005.01 1005.49 1005.71 1005.94 1006.94 1007.32 1007.76 1008.29 1008.82 1009.21 1009.29 1009.57 1010.06 1010.36 1010.81 1010.48 1011.33 1011.23 1011.49 1011.80 1011.99 1011.77 1011.63 1011.72 1011.45 1011.83 1012.62 1013.05 1013.11 1013.16 1013.18 1013.25 1013.37
1001.77 1001.95 1002.26 1002.60 1003.03 1003.48 1003.69 1004.01 1004.18 1004.08 1004.43 1004.46 1004.86 1005.41 1006.08 1007.04 1007.17 1007.72 1008.07 1008.42 1008.74 1009.15 1009.64 1010.10 1010.45 1011.02 1010.58 1010.79 1011.13 1011.32 1011.56 1011.86 1011.50 1011.43 1011.54 1011.44 1011.69 1012.21 1012.62 1012.74 1012.87 1012.90 1013.03
1001.68 1001.79 1001.89 1001.97 1001.98 1002.61 1002.77 1002.99 1003.17 1003.23 1003.50 1003.55 1003.84 1004.52 1005.40 1006.22 1006.78 1007.18 1007.24 1007.74 1008.05 1008.55 1009.13 1009.45 1010.23 1010.36 1010.46 1010.38 1010.96 1011.64 1011.78 1011.37 1011.01 1011.20 1011.60 1011.26 1011.21 1011.10 1011.80 1012.04 1012.38 1012.56 1012.71
1001.39 1001.55 1001.64 1001.73 1001.75 1001.96 1002.15 1002.32 1002.46 1002.67 1002.85 1002.91 1003.19 1003.69 1004.48 1005.46 1006.16 1006.54 1006.87 1007.11 1007.63 1008.08 1008.57 1009.16 1009.68 1009.88 1009.89 1010.37 1010.70 1011.36 1011.29 1010.64 1010.70 1010.79 1010.86 1010.95 1011.05 1011.11 1010.79 1011.32 1011.77 1012.19 1012.34
1001.01 1001.24 1001.22 1001.24 1001.22 1001.61 1001.83 1001.83 1001.84 1001.75 1001.95 1002.42 1002.62 1003.11 1003.94 1004.76 1005.40 1006.33 1006.46 1006.66 1007.19 1007.51 1007.98 1008.59 1009.13 1009.57 1010.10 1010.18 1010.29 1010.09 1010.29 1010.63 1010.58 1010.34 1010.52 1010.68 1010.73 1011.00 1010.90 1010.69 1011.14 1011.56 1012.18
1000.38 1000.42 1000.50 1000.61 1000.83 1001.10 1001.00 1000.92 1000.75 1000.53 1000.97 1001.66 1002.11 1002.75 1003.55 1004.28 1005.17 1005.86 1005.92 1006.34 1006.89 1006.80 1007.34 1008.11 1008.99 1009.13 1009.51 1010.20 1010.20 1009.68 1009.44 1009.45 1010.05 1009.92 1009.77 1010.50 1010.41 1010.35 1010.16 1010.75 1010.99 1010.94 1011.54
999.42 999.56 999.57 999.78 1000.03 1000.40 1000.27 1000.23 999.85 999.74 999.95 1000.75 1001.61 1002.47 1003.27 1004.18 1004.78 1005.10 1005.38 1005.68 1006.34 1006.55 1007.34 1008.06 1008.31 1008.53 1009.28 1010.02 1009.71 1009.81 1008.90 1008.45 1008.88 1009.56 1009.80 1009.98 1009.96 1009.94 1010.14 1010.49 1010.56 1010.98 1010.74
998.12 998.46 998.75 998.91 999.20 999.49 999.85 999.86 1000.05 999.99 1000.30 1000.62 1001.22 1002.50 1003.35 1003.73 1004.20 1004.62 1005.08 1005.28 1005.95 1006.24 1007.04 1007.54 1008.16 1008.28 1008.82 1009.74 1010.07 1009.69 1008.47 1008.17 1008.53 1009.33 1009.73 1009.78 1009.88 1010.12 1010.25 1010.39 1010.70 1011.03 1011.15
996.86 997.30 997.70 998.11 998.50 998.63 998.99 998.69 999.03 999.07 999.47 1000.13 1000.88 1002.27 1002.73 1003.29 1003.87 1004.55 1005.11 1005.26 1005.73 1006.06 1006.28 1007.11 1007.85 1007.83 1008.51 1009.09 1009.74 1009.90 1009.42 1009.14 1008.57 1009.17 1009.41 1009.53 1009.87 1010.02 1010.16 1010.40 1010.75 1011.16 1011.62
995.88 996.35 996.82 997.34 997.53 997.77 997.93 998.19 998.66 998.81 999.10 1000.18 1000.69 1001.70 1002.79 1003.35 1003.89 1004.40 1004.67 1005.21 1005.59 1005.58 1006.29 1006.87 1007.29 1007.84 1008.49 1008.34 1008.09 1008.65 1009.41 1009.16 1009.37 1009.28 1009.07 1009.53 1009.98 1010.10 1010.18 1010.46 1010.63 1011.03 1011.58
995.37 995.75 996.12 996.59 996.73 997.27 997.61 998.09 998.40 998.60 998.88 999.54 1000.35 1002.04 1002.74 1003.33 1003.70 1004.04 1004.49 1004.87 1005.29 1005.60 1006.21 1006.81 1007.32 1007.81 1008.12 1008.07 1008.17 1008.48 1008.80 1008.66 1008.43 1009.20 1009.32 1009.37 1009.66 1010.00 1010.38 1010.56 1010.82 1011.00 1011.16
Wind_Speed
13 21 22 20 18 17 17 17 17 16 16 15 15 15 14 13 12 13 14 13 12 12 12 11 10 10 9 8 7 6 6 5 5 5 6 6 7 4 3 5 6 9 13
18 23 23 21 20 18 17 17 16 16 16 15 15 14 14 13 13 11 11 12 11 11 10 10 10 9 9 8 7 6 5 5 5 3 2 4 5 5 3 3 5 5 8
20 22 24 22 20 20 18 18 17 16 16 16 16 15 14 13 13 12 10 10 11 11 11 10 10 9 8 7 7 6 5 4 4 2 2 7 2 5 5 2 3 6 8
18 19 22 23 22 21 19 18 18 17 17 16 16 15 15 14 13 14 13 11 11 11 11 10 9 8 8 7 5 5 5 4 3 3 8 2 4 7 2 3 2 6 8
17 18 20 24 23 23 22 19 18 17 17 16 16 16 15 15 14 14 14 13 13 11 10 10 9 8 6 5 5 4 3 3 3 8 1 3 3 10 1 3 6 8 8
16 18 18 22 20 21 21 19 18 18 17 17 17 17 16 15 15 14 14 14 13 12 11 10 9 8 7 6 5 4 4 4 7 5 3 6 7 9 3 6 6 7 9
15 15 18 20 19 19 18 18 17 17 17 17 17 17 17 17 15 14 14 14 13 13 12 11 11 9 8 6 6 5 4 4 11 5 4 3 2 4 5 7 8 9 8
12 13 14 19 16 16 18 18 17 17 18 18 18 17 16 16 15 14 14 13 13 13 13 12 10 8 7 7 7 7 6 7 9 8 5 4 9 1 5 9 8 10 10
10 11 11 16 16 13 14 16 18 18 18 18 17 16 16 15 14 14 13 13 12 11 11 10 9 9 8 8 7 6 6 6 11 7 6 5 11 2 4 6 3 8 8
10 10 11 12 17 18 17 16 17 18 18 18 17 16 16 15 14 14 12 12 12 10 10 8 9 9 8 8 8 7 7 8 11 10 6 3 8 2 3 4 2 4 6
8 9 10 13 15 17 17 17 16 17 18 18 16 15 14 13 15 16 14 13 13 11 10 10 10 10 9 9 8 8 8 8 7 6 6 14 6 4 4 2 1 3 5
10 10 11 11 14 14 12 14 15 16 15 15 16 17 14 15 13 14 14 12 15 13 13 13 11 9 9 8 9 10 8 5 5 5 5 10 5 7 7 5 5 5 7
4 5 9 11 12 14 13 10 8 9 10 12 18 15 15 12 12 12 9 10 10 12 8 12 13 10 10 6 5 4 4 5 5 4 3 7 7 11 10 9 8 8 9
11 9 6 10 12 14 10 11 11 11 11 11 15 17 13 11 11 11 10 12 9 8 11 11 7 8 8 8 7 7 7 6 4 4 6 10 9 11 12 11 11 11 11
13 13 9 9 12 12 14 11 12 13 12 13 14 17 15 15 11 12 11 10 10 10 9 9 8 8 9 9 8 8 8 7 6 6 4 14 10 11 13 13 12 13 13
14 14 13 10 10 12 13 14 11 11 12 12 13 14 20 14 12 14 12 13 12 11 10 9 9 9 7 8 9 9 8 8 8 8 7 8 12 10 10 13 13 14 14
13 12 11 9 9 12 14 13 11 12 12 13 13 14 17 16 14 14 13 13 13 10 12 9 8 5 8 7 8 9 7 9 9 9 8 8 9 14 12 12 13 13 14
12 12 12 12 11 11 12 11 11 11 12 12 12 12 17 17 17 15 13 12 12 11 11 10 8 10 8 7 4 5 7 10 10 8 8 9 6 7 12 13 12 14 13
13 13 13 14 15 12 11 11 12 12 11 11 10 11 15 17 18 14 13 12 13 11 10 9 9 8 7 6 7 7 8 9 7 10 11 11 10 8 6 14 11 11 10
14 14 14 14 13 11 10 9 11 10 10 9 10 10 14 13 16 13 12 13 13 12 10 9 9 8 4 5 6 8 7 8 10 9 10 10 10 10 10 8 8 9 10
16 15 14 13 12 9 9 10 10 11 9 9 10 12 13 12 14 16 12 13 12 12 11 11 9 9 6 5 6 8 9 10 10 9 7 9 10 11 10 7 7 3 9
17 15 15 14 11 11 10 9 8 7 8 8 8 10 12 13 16 14 14 12 14 11 11 9 11 7 5 6 4 5 9 5 6 7 8 8 11 8 9 9 9 8 7
19 16 14 13 12 11 12 8 7 5 3 8 9 8 9 15 14 14 13 11 12 10 10 12 10 9 5 4 6 6 5 4 2 3 5 7 8 7 7 8 9 10 4
19 15 14 12 11 11 12 10 11 9 8 7 8 9 12 13 10 9 12 12 12 11 10 10 8 8 5 6 3 7 10 7 5 3 3 6 6 8 9 7 8 9 4
16 14 13 13 12 11 12 12 11 11 8 8 8 12 7 8 10 13 13 12 12 10 10 11 7 6 5 8 6 6 6 8 7 7 4 3 3 3 5 5 6 6 3
11 12 11 10 10 10 12 13 12 11 10 10 10 10 8 8 8 11 13 12 12 9 9 7 7 7 7 5 5 4 6 5 7 5 5 4 4 3 2 2 6 7 10
Wind_Direction
170 152 168 169 171 173 164 160 157 158 154 155 154 151 151 154 159 157 155 152 148 148 145 139 133 127 119 115 108 101 92 83 66 48 46 53 62 61 122 156 187 179 143
156 156 169 168 173 173 170 167 165 162 159 161 159 159 159 163 164 166 162 158 152 152 147 146 138 137 136 133 126 118 110 96 78 49 22 179 95 49 51 176 228 111 143
157 161 170 169 174 173 175 173 170 168 167 168 166 166 167 170 170 168 166 163 160 159 158 152 147 146 147 144 138 139 133 121 109 95 261 244 141 57 34 10 211 138 162
154 165 173 172 175 175 176 176 176 173 177 173 172 173 173 175 176 171 169 171 172 171 164 155 153 154 154 149 148 157 157 149 148 224 225 209 227 107 19 354 313 182 184
158 169 176 175 178 176 177 178 177 177 182 178 179 179 181 179 178 174 172 175 178 175 167 164 161 160 158 161 165 174 188 186 204 236 162 237 251 119 33 321 222 195 194
162 174 164 178 182 179 176 176 180 181 183 183 185 183 183 184 183 179 179 180 177 176 175 175 174 172 179 185 198 207 216 241 253 215 190 136 254 74 354 293 284 272 186
166 177 166 178 189 182 174 177 182 185 185 188 189 188 187 187 185 184 184 184 180 179 181 183 184 185 189 200 214 222 224 242 268 195 212 221 188 72 301 295 273 228 206
166 178 173 180 188 183 179 177 185 190 190 190 193 190 192 190 184 185 190 187 188 187 187 189 190 196 205 220 236 230 242 257 238 265 234 236 98 84 297 305 279 206 201
170 178 183 181 188 186 185 182 188 192 195 196 194 192 193 195 190 189 192 192 198 195 195 195 198 205 213 231 237 237 232 249 275 257 235 229 122 209 296 309 238 183 194
175 187 187 191 189 198 192 193 194 195 197 199 198 193 191 196 195 196 196 199 204 204 204 206 209 214 222 223 223 228 244 244 247 268 231 204 104 263 291 341 216 193 196
192 195 199 191 197 204 206 193 196 202 202 200 200 200 190 203 198 198 203 183 204 206 209 213 217 217 220 223 219 225 234 243 241 228 255 108 132 238 255 260 232 221 207
209 206 206 209 210 207 214 208 200 209 211 211 206 202 210 209 206 207 196 198 194 203 205 208 217 223 224 234 181 201 234 268 247 253 249 118 166 238 239 237 234 232 226
250 276 213 204 216 213 210 207 208 209 210 210 213 205 203 206 206 203 201 194 198 200 210 208 194 214 220 247 232 250 252 238 242 228 146 138 207 239 240 236 230 235 228
276 291 260 209 209 218 222 208 213 216 210 213 208 207 206 205 202 206 205 197 199 179 203 210 215 215 215 229 244 252 234 256 229 236 158 168 213 237 240 237 234 232 233
273 275 258 212 212 211 217 225 217 221 217 216 214 204 208 205 202 201 205 204 189 208 186 216 197 226 214 225 240 239 248 246 254 261 263 163 205 235 239 235 235 233 233
262 263 269 237 222 206 221 225 228 225 229 220 221 215 206 211 200 202 203 205 204 193 207 198 225 199 217 228 219 241 249 257 238 248 245 179 185 220 235 241 236 236 228
263 259 264 256 222 218 222 230 231 235 222 228 222 218 207 210 210 210 205 204 207 204 199 210 231 216 216 223 243 244 243 258 257 244 242 249 183 193 219 227 234 226 226
260 266 262 263 254 228 233 236 235 236 234 224 221 216 211 208 221 201 212 207 207 201 200 207 195 215 221 223 259 271 249 250 246 257 253 257 243 248 189 203 221 223 225
266 265 261 259 261 261 248 246 239 236 229 231 218 212 204 208 211 219 216 207 206 206 200 195 212 225 215 222 235 243 245 253 258 252 236 234 240 261 249 168 193 208 202
257 256 252 258 262 250 254 240 242 227 221 223 218 213 206 202 206 203 213 213 198 208 195 204 208 203 215 233 252 253 280 279 267 249 245 248 232 232 237 243 183 189 185
259 253 251 252 244 232 232 227 223 218 207 210 214 206 203 194 195 198 214 202 201 205 200 184 196 204 208 223 245 253 255 233 241 253 239 239 236 224 219 197 211 247 174
255 254 250 250 244 225 224 227 237 217 209 200 194 191 191 177 198 200 211 191 196 195 191 180 194 191 207 201 257 289 270 210 220 225 237 230 231 220 220 205 215 200 224
254 249 247 242 232 227 231 213 204 195 199 186 178 168 188 192 196 203 199 195 183 194 181 188 190 194 211 185 246 260 273 262 169 199 235 230 234 216 215 202 182 193 211
258 251 247 245 240 234 215 208 203 192 187 190 186 166 183 191 176 178 187 190 178 189 178 182 185 216 202 216 186 248 270 298 283 220 223 226 221 212 197 188 184 179 184
254 246 245 247 244 234 203 214 192 210 168 165 169 152 138 157 172 177 182 173 181 192 169 184 180 193 207 251 212 175 229 237 235 261 262 197 194 169 185 178 178 161 216
249 238 233 240 237 217 204 200 198 183 166 158 135 142 153 153 163 168 170 172 171 179 170 169 183 200 232 212 250 235 216 219 226 228 247 188 171 142 156 184 167 179 191